Stations météo

Publicité
Chillingham Barns, Grande-Bretagne (99196): Température de l'air & dewpoint: 14.02.2018 00:00:00 - 20.02.2018 00:00:00 (GMT)Chillingham Barns, Grande-Bretagne (99196): Quantités de précipitations: 14.02.2018 00:00:00 - 20.02.2018 00:00:00 (GMT)
Date & Time tt [°C] td [°C] rr [mm]
20.02.2018 00:00:00 - - -
19.02.2018 23:00:00 5,8 5,8 0,0
19.02.2018 22:00:00 5,8 5,8 0,4
19.02.2018 21:00:00 5,8 5,8 0,6
19.02.2018 20:00:00 5,8 5,8 0,0
19.02.2018 19:00:00 5,8 5,8 0,0
19.02.2018 18:00:00 6,0 6,0 0,0
19.02.2018 17:00:00 6,4 6,4 0,2
19.02.2018 16:00:00 7,2 7,2 0,2
19.02.2018 15:00:00 7,3 7,3 0,4
19.02.2018 14:00:00 7,3 7,3 0,4
19.02.2018 13:00:00 6,9 6,9 0,0
19.02.2018 12:00:00 6,9 6,9 0,4
19.02.2018 11:00:00 6,7 6,7 0,6
19.02.2018 10:00:00 7,1 7,1 0,6
19.02.2018 09:00:00 6,9 6,9 0,4
19.02.2018 08:00:00 5,8 5,8 0,6
19.02.2018 07:00:00 5,7 5,7 0,4
19.02.2018 06:00:00 5,5 5,5 0,8
19.02.2018 05:00:00 5,6 5,6 0,6
19.02.2018 04:00:00 5,7 5,7 1,0
19.02.2018 03:00:00 5,8 5,7 0,4
19.02.2018 02:00:00 6,0 5,8 0,6
19.02.2018 01:00:00 6,0 5,5 0,0
19.02.2018 00:00:00 5,7 5,2 0,0
18.02.2018 23:00:00 5,5 5,0 0,6
18.02.2018 22:00:00 5,4 4,9 0,0
18.02.2018 21:00:00 5,5 5,0 0,6
18.02.2018 20:00:00 5,6 5,1 1,0
18.02.2018 19:00:00 5,8 5,1 0,4
18.02.2018 18:00:00 5,9 4,8 0,6
18.02.2018 17:00:00 6,6 4,2 0,0
18.02.2018 16:00:00 7,3 4,4 0,0
18.02.2018 15:00:00 7,5 4,4 0,0
18.02.2018 14:00:00 7,7 4,1 0,0
18.02.2018 13:00:00 6,8 4,3 0,0
18.02.2018 12:00:00 6,1 3,7 0,0
18.02.2018 11:00:00 3,7 2,6 0,0
18.02.2018 10:00:00 3,6 2,8 0,0
18.02.2018 09:00:00 2,1 2,0 0,0
18.02.2018 08:00:00 -0,3 -0,3 0,0
18.02.2018 07:00:00 -1,1 -1,3 0,0
18.02.2018 06:00:00 -0,6 -0,8 0,0
18.02.2018 05:00:00 0,1 -0,6 0,0
18.02.2018 04:00:00 1,2 0,5 0,0
18.02.2018 03:00:00 2,2 1,0 0,0
18.02.2018 02:00:00 1,8 0,7 0,0
18.02.2018 01:00:00 2,2 1,0 0,0
18.02.2018 00:00:00 2,4 1,2 0,0
17.02.2018 23:00:00 2,2 1,2 0,0
17.02.2018 22:00:00 3,2 1,8 0,0
17.02.2018 21:00:00 3,8 1,3 0,0
17.02.2018 20:00:00 4,2 0,9 0,0
17.02.2018 19:00:00 4,2 1,0 0,0
17.02.2018 18:00:00 4,0 0,8 0,0
17.02.2018 17:00:00 5,7 1,2 0,0
17.02.2018 16:00:00 7,2 1,5 0,0
17.02.2018 15:00:00 7,3 2,4 0,0
17.02.2018 14:00:00 7,6 2,4 0,0
17.02.2018 13:00:00 7,3 2,1 0,0
17.02.2018 12:00:00 7,4 2,3 0,0
17.02.2018 11:00:00 4,8 2,3 0,0
17.02.2018 10:00:00 4,8 2,4 0,0
17.02.2018 09:00:00 4,1 2,0 0,0
17.02.2018 08:00:00 3,9 1,7 0,0
17.02.2018 07:00:00 3,8 1,7 0,0
17.02.2018 06:00:00 4,1 1,5 0,0
17.02.2018 05:00:00 4,2 1,4 0,0
17.02.2018 04:00:00 4,2 1,1 0,0
17.02.2018 03:00:00 4,4 1,2 0,0
17.02.2018 02:00:00 4,0 0,9 0,0
17.02.2018 01:00:00 4,3 0,9 0,0
17.02.2018 00:00:00 4,5 1,3 0,0
16.02.2018 23:00:00 4,3 1,5 0,0
16.02.2018 22:00:00 4,1 1,8 0,0
16.02.2018 21:00:00 4,1 1,9 0,0
16.02.2018 20:00:00 4,3 2,0 0,0
16.02.2018 19:00:00 4,3 1,9 0,0
16.02.2018 18:00:00 4,7 2,3 0,0
16.02.2018 17:00:00 6,2 2,8 0,0
16.02.2018 16:00:00 6,3 2,6 0,0
16.02.2018 15:00:00 6,0 2,7 0,0
16.02.2018 14:00:00 6,2 2,2 0,0
16.02.2018 13:00:00 6,3 1,4 0,0
16.02.2018 12:00:00 6,4 1,4 0,0
16.02.2018 11:00:00 5,1 0,6 0,0
16.02.2018 10:00:00 4,3 0,0 0,0
16.02.2018 09:00:00 3,5 -0,4 0,0
16.02.2018 08:00:00 2,8 -0,8 0,0
16.02.2018 07:00:00 3,1 -1,0 0,0
16.02.2018 06:00:00 2,5 -1,3 0,0
16.02.2018 05:00:00 3,1 -1,3 0,0
16.02.2018 04:00:00 2,7 -1,3 0,0
16.02.2018 03:00:00 2,6 -1,5 0,0
16.02.2018 02:00:00 2,6 -1,9 0,0
16.02.2018 01:00:00 2,6 -1,7 0,0
16.02.2018 00:00:00 2,9 -1,7 0,0
15.02.2018 23:00:00 3,4 -1,4 0,0
15.02.2018 22:00:00 3,5 -1,7 0,0
15.02.2018 21:00:00 3,5 -1,4 0,0
15.02.2018 20:00:00 3,4 -1,1 0,0
15.02.2018 19:00:00 3,4 -0,9 0,0
15.02.2018 18:00:00 3,5 -0,5 0,0
15.02.2018 17:00:00 3,4 -0,7 0,0
15.02.2018 16:00:00 4,3 -0,7 0,0
15.02.2018 15:00:00 4,9 -0,9 0,0
15.02.2018 14:00:00 5,7 -1,1 0,0
15.02.2018 13:00:00 5,0 -0,6 0,0
15.02.2018 12:00:00 5,4 -0,7 0,0
15.02.2018 11:00:00 4,3 -0,1 0,2
15.02.2018 10:00:00 4,3 -0,2 0,0
15.02.2018 09:00:00 3,6 -0,3 0,0
15.02.2018 08:00:00 3,6 -0,2 0,0
15.02.2018 07:00:00 3,8 0,4 0,0
15.02.2018 06:00:00 3,8 0,6 0,0
15.02.2018 05:00:00 4,0 1,6 0,0
15.02.2018 04:00:00 3,6 1,4 0,0
15.02.2018 03:00:00 3,2 1,7 2,2
15.02.2018 02:00:00 2,8 1,7 0,0
15.02.2018 01:00:00 2,8 2,0 0,0
15.02.2018 00:00:00 3,3 2,5 0,0
14.02.2018 23:00:00 3,7 2,6 0,0
14.02.2018 22:00:00 4,1 2,5 0,0
14.02.2018 21:00:00 3,5 2,3 0,0
14.02.2018 20:00:00 3,1 2,1 0,0
14.02.2018 19:00:00 2,9 2,3 0,2
14.02.2018 18:00:00 2,4 1,9 0,0
14.02.2018 17:00:00 2,2 1,5 0,4
14.02.2018 16:00:00 2,6 0,9 0,0
14.02.2018 15:00:00 2,4 0,8 0,0
14.02.2018 14:00:00 1,3 0,5 0,2
14.02.2018 13:00:00 1,4 -0,4 0,0
14.02.2018 12:00:00 1,9 -1,6 0,0
14.02.2018 11:00:00 1,5 -2,5 0,0
14.02.2018 10:00:00 1,2 -2,7 -
14.02.2018 09:00:00 0,6 -2,5 0,0
14.02.2018 08:00:00 0,6 -2,8 0,0
14.02.2018 07:00:00 0,6 -2,5 0,0
14.02.2018 06:00:00 0,0 -2,6 0,0
14.02.2018 05:00:00 -0,6 -2,9 0,0
14.02.2018 04:00:00 -0,8 -2,8 0,0
14.02.2018 03:00:00 -0,4 -2,9 0,0
14.02.2018 02:00:00 0,0 -2,8 0,0
14.02.2018 01:00:00 0,4 -2,2 0,0
14.02.2018 00:00:00 -0,3 -2,1 0,0

tt = Température de l'air
td = dewpoint
rr = Quantités de précipitations

stations d'obs. à proximité